Karlovy Vary, Czech Republic

9:45 AM CET on December 17, 2017 (GMT +0100)
Karlovy Vary

Weather History for LKKV - October, 2012

Change the Weather History Date:

Saturday, October 6, 2012

  Actual Average (EDQM) Record (EDQM)
Temperature  
Mean Temperature 60 °F -  
Max Temperature 68 °F 53 °F 68 °F (1997)
Min Temperature 50 °F 42 °F 37 °F (1999)
Degree Days  
Heating Degree Days 6    
Growing Degree Days 10 (Base 50)    
Moisture  
Dew Point 49 °F    
Average Humidity 66    
Maximum Humidity 94    
Minimum Humidity 40    
Precipitation  
Precipitation 0.00 in - - ()
Sea Level Pressure  
Sea Level Pressure 29.92 in    
Wind  
Wind Speed 9 mph ()    
Max Wind Speed 18 mph    
Max Gust Speed 34 mph    
Visibility 6.2 miles    
Events Rain    
Averages and records for this station are not official NWS values.
T = Trace of Precipitation, MM = Missing Value Source: Averaged Metar Reports

Daily Weather History Graph

Daily Weather History Graph

Search for Another Location

Airport or City:

Trip Planner

Search our weather history database for the weather conditions in past years. The results will help you decide how hot, cold, wet, or windy it might be!

Date:

Astronomy

Oct. 06, 2012 Rise Set
Actual Time 7:16 AM CEST 6:35 PM CEST
Civil Twilight 6:44 AM CEST 7:07 PM CEST
Nautical Twilight 6:06 AM CEST 7:45 PM CEST
Astronomical Twilight 5:28 AM CEST 8:23 PM CEST
Moon 10:07 PM CEST (10/6) 1:26 PM CEST (10/6)
Length of Visible Light 12h 23m
Length of Day
11h 18m
Waning Gibbous, 68% of the Moon is Illuminated
Oct 6
Waning Gibbous
Oct 8
Last Quarter
Oct 15
New
Oct 22
First Quarter
Oct 29
Full

Hourly Weather History & Observations

Time (CEST) Temp. Dew Point Humidity Pressure Visibility Wind Dir Wind Speed Gust Speed Precip Events Conditions
12:00 AM 59.0 °F 50.0 °F 72% 29.98 in - SW 8.1 mph - N/A   Clear
1:00 AM 59.0 °F 50.0 °F 72% 29.98 in 6.2 mi WSW 9.2 mph - N/A   Partly Cloudy
2:00 AM 59.0 °F 50.0 °F 72% 29.98 in 6.2 mi WSW 8.1 mph 19.6 mph N/A   Mostly Cloudy
3:00 AM 57.2 °F 50.0 °F 77% 29.98 in - SW 6.9 mph - N/A   Clear
4:00 AM 55.4 °F 50.0 °F 82% 29.98 in - SW 6.9 mph - N/A   Clear
5:00 AM 55.4 °F 50.0 °F 82% 29.95 in - SW 8.1 mph - N/A   Clear
6:00 AM 55.4 °F 50.0 °F 82% 29.95 in 6.2 mi SW 8.1 mph - N/A   Partly Cloudy
7:00 AM 55.4 °F 50.0 °F 82% 29.95 in 6.2 mi SW 3.5 mph - N/A   Mostly Cloudy
8:00 AM 57.2 °F 50.0 °F 77% 29.95 in 6.2 mi SSW 4.6 mph - N/A   Mostly Cloudy
8:30 AM 57.2 °F 50.0 °F 77% 29.95 in 6.2 mi South 3.5 mph - N/A   Partly Cloudy
9:00 AM 59.0 °F 50.0 °F 72% 29.95 in 6.2 mi SSW 4.6 mph - N/A   Partly Cloudy
9:30 AM 60.8 °F 50.0 °F 68% 29.92 in 6.2 mi SW 8.1 mph - N/A   Scattered Clouds
10:00 AM 62.6 °F 50.0 °F 63% 29.95 in 6.2 mi WSW 9.2 mph - N/A   Partly Cloudy
10:30 AM 62.6 °F 50.0 °F 63% 29.92 in 6.2 mi WSW 12.7 mph - N/A   Partly Cloudy
11:00 AM 64.4 °F 51.8 °F 64% 29.92 in 6.2 mi SW 10.4 mph - N/A   Partly Cloudy
11:30 AM 64.4 °F 50.0 °F 59% 29.92 in 6.2 mi SW 10.4 mph - N/A   Partly Cloudy
12:00 PM 64.4 °F 50.0 °F 59% 29.92 in 6.2 mi SW 10.4 mph - N/A   Partly Cloudy
12:30 PM 66.2 °F 50.0 °F 56% 29.92 in 6.2 mi SSW 12.7 mph - N/A   Partly Cloudy
1:00 PM 66.2 °F 50.0 °F 56% 29.89 in 6.2 mi SSW 11.5 mph - N/A   Partly Cloudy
1:30 PM 66.2 °F 48.2 °F 52% 29.89 in 6.2 mi SW 11.5 mph - N/A   Partly Cloudy
2:00 PM 68.0 °F 50.0 °F 52% 29.86 in 6.2 mi SW 15.0 mph 29.9 mph N/A   Partly Cloudy
2:30 PM 68.0 °F 50.0 °F 52% 29.86 in 6.2 mi SW 15.0 mph 27.6 mph N/A   Partly Cloudy
3:00 PM 66.2 °F 50.0 °F 56% 29.86 in 6.2 mi SW 13.8 mph 25.3 mph N/A   Partly Cloudy
3:30 PM 68.0 °F 50.0 °F 52% 29.86 in 6.2 mi SW 15.0 mph 33.4 mph N/A   Partly Cloudy
4:00 PM 68.0 °F 46.4 °F 46% 29.86 in 6.2 mi SW 13.8 mph - N/A   Partly Cloudy
4:30 PM 66.2 °F 48.2 °F 52% 29.86 in 6.2 mi WSW 16.1 mph 31.1 mph N/A   Partly Cloudy
5:00 PM 66.2 °F 41.0 °F 40% 29.89 in 6.2 mi WSW 18.4 mph 34.5 mph N/A   Partly Cloudy
5:30 PM 62.6 °F 42.8 °F 48% 29.89 in 6.2 mi WSW 15.0 mph 28.8 mph N/A   Partly Cloudy
6:00 PM 62.6 °F 44.6 °F 52% 29.89 in 6.2 mi WSW 12.7 mph - N/A   Scattered Clouds
6:30 PM 60.8 °F 46.4 °F 59% 29.89 in 6.2 mi WSW 13.8 mph 27.6 mph N/A   Mostly Cloudy
7:00 PM 60.8 °F 46.4 °F 59% 29.89 in 6.2 mi WSW 16.1 mph - N/A Rain Light Rain
7:30 PM 59.0 °F 48.2 °F 67% 29.92 in 6.2 mi WSW 10.4 mph - N/A Rain Light Rain
8:00 PM 59.0 °F 48.2 °F 67% 29.92 in 6.2 mi WSW 12.7 mph - N/A   Mostly Cloudy
8:30 PM 59.0 °F 50.0 °F 72% 29.92 in 6.2 mi WSW 15.0 mph 28.8 mph N/A   Mostly Cloudy
9:00 PM 57.2 °F 50.0 °F 77% 29.92 in 6.2 mi West 11.5 mph - N/A Rain Light Rain
10:00 PM 51.8 °F 50.0 °F 94% 29.95 in 6.2 mi West 6.9 mph - N/A Rain Light Rain
11:00 PM 50.0 °F 48.2 °F 94% 29.95 in 6.2 mi NW 5.8 mph - N/A Rain Light Rain